Weather in Mezmay

Russia / Krasnodar Krai     44°11′52″N   39°57′34″E
temp.,
°C
wind,
m/s
gust,
m/s
humid.,
%
clouds,
%
prec.,
mm/h
press.,
hPa
HPBL,
m
22 january, fri
fri2200:00−3s34800 0.0 103278
03:00−3s33760 0.0 103171
06:00−2s33720 0.0 103060
09:00−1s23700 0.0 103058
12:00+5wnw01690 0.0 1029279
15:00+4n11790 0.0 1027234
18:000s22800 0.0 102825
21:00−1s22660 0.0 102725
23 january, sat
sat2300:00−1s226512 0.0 102725
03:00−1s236320 0.0 102626
06:000s336050 0.0 102628
09:00+1s226125 0.0 102627
12:00+7nnw01610 0.0 1024219
15:00+6e118125 0.0 102328
18:00+1s2270100 0.0 102324
21:00+1s336184 0.0 102327
24 january, sun
sun2400:00+1s33590 0.0 102227
03:00+1s33570 0.0 102127
06:00+2s335636 0.0 102027
09:00+3s335756 0.0 102030
12:00+8s1269100 0.0 101839
15:00+7s1277100 0.0 101628
18:00+4s3362100 0.0 101727
21:00+3s3360100 0.0 101831
25 january, mon
mon2500:00+3s3359100 0.0 101833
03:00+2s335785 0.0 101834
06:00+3s3358100 0.0 101838
09:00+4s335998 0.0 101941
12:00+9sse1269100 0.0 101797
15:00+9sse117684 0.0 101549
18:00+5s3360100 0.0 101528
21:00+4s3358100 0.0 101543
26 january, tue
tue2600:00+3s445967 0.0 101654
03:00+4s456368 0.0 1016104
06:00+4sse3374100 0.0 101566
09:00+5sse3574100 0.0 101591
12:00+9sse2571100 0.0 1013336
15:00+10s1475100 0.0 1013314
18:00+5s2372100 0.0 101538
21:00+4ssw3468100 0.0 101784